Year,Month,Day,Hour,Minute,Value (Times are PST for temperature in C)
2015,05,30,00,00,15.20
2015,05,30,00,01,15.30
2015,05,30,00,02,15.40
2015,05,30,00,03,15.40
2015,05,30,00,04,15.50
2015,05,30,00,05,15.60
2015,05,30,00,06,15.80
2015,05,30,00,07,15.80
2015,05,30,00,08,15.90
2015,05,30,00,09,16.10
2015,05,30,00,10,16.20
2015,05,30,00,11,16.40
2015,05,30,00,12,16.50
2015,05,30,00,13,16.60
2015,05,30,00,14,16.80
2015,05,30,00,15,16.80
2015,05,30,00,16,16.90
2015,05,30,00,17,16.90
2015,05,30,00,18,17.00
2015,05,30,00,19,17.00
2015,05,30,00,20,17.10
2015,05,30,00,21,17.10
2015,05,30,00,22,17.20
2015,05,30,00,23,17.20
2015,05,30,00,24,17.20
2015,05,30,00,25,17.30
2015,05,30,00,26,17.30
2015,05,30,00,27,17.30
2015,05,30,00,28,17.30
2015,05,30,00,29,17.30
2015,05,30,00,30,17.30
2015,05,30,00,31,17.30
2015,05,30,00,32,17.30
2015,05,30,00,33,17.30
2015,05,30,00,34,17.30
2015,05,30,00,35,17.30
2015,05,30,00,36,17.30
2015,05,30,00,37,17.30
2015,05,30,00,38,17.30
2015,05,30,00,39,17.30
2015,05,30,00,40,17.40
2015,05,30,00,41,17.40
2015,05,30,00,42,17.40
2015,05,30,00,43,17.40
2015,05,30,00,44,17.40
2015,05,30,00,45,17.40
2015,05,30,00,46,17.40
2015,05,30,00,47,17.50
2015,05,30,00,48,17.50
2015,05,30,00,49,17.60
2015,05,30,00,50,17.60
2015,05,30,00,51,17.60
2015,05,30,00,52,17.60
2015,05,30,00,53,17.60
2015,05,30,00,54,17.60
2015,05,30,00,55,17.60
2015,05,30,00,56,17.60
2015,05,30,00,57,17.60
2015,05,30,00,58,17.60
2015,05,30,00,59,17.60
2015,05,30,01,00,17.60
2015,05,30,01,01,17.50
2015,05,30,01,02,17.50
2015,05,30,01,03,17.40
2015,05,30,01,04,17.40
2015,05,30,01,05,17.40
2015,05,30,01,06,17.40
2015,05,30,01,07,17.30
2015,05,30,01,08,17.30
2015,05,30,01,09,17.20
2015,05,30,01,10,17.20
2015,05,30,01,11,17.10
2015,05,30,01,12,17.10
2015,05,30,01,13,17.00
2015,05,30,01,14,16.90
2015,05,30,01,15,16.80
2015,05,30,01,16,16.80
2015,05,30,01,17,16.70
2015,05,30,01,18,16.60
2015,05,30,01,19,16.50
2015,05,30,01,20,16.50
2015,05,30,01,21,16.40
2015,05,30,01,22,16.30
2015,05,30,01,23,16.20
2015,05,30,01,24,16.20
2015,05,30,01,25,16.10
2015,05,30,01,26,16.10
2015,05,30,01,27,16.00
2015,05,30,01,28,16.00
2015,05,30,01,29,15.90
2015,05,30,01,30,15.90
2015,05,30,01,31,15.90
2015,05,30,01,32,15.90
2015,05,30,01,33,15.90
2015,05,30,01,34,15.90
2015,05,30,01,35,16.00
2015,05,30,01,36,16.00
2015,05,30,01,37,16.00
2015,05,30,01,38,16.00
2015,05,30,01,39,16.00
2015,05,30,01,40,16.00
2015,05,30,01,41,16.00
2015,05,30,01,42,16.00
2015,05,30,01,43,16.00
2015,05,30,01,44,15.90
2015,05,30,01,45,15.90
2015,05,30,01,46,15.90
2015,05,30,01,47,15.90
2015,05,30,01,48,15.90
2015,05,30,01,49,15.90
2015,05,30,01,50,15.90
2015,05,30,01,51,15.90
2015,05,30,01,52,15.90
2015,05,30,01,53,16.00
2015,05,30,01,54,16.00
2015,05,30,01,55,16.00
2015,05,30,01,56,16.10
2015,05,30,01,57,16.10
2015,05,30,01,58,16.10
2015,05,30,01,59,16.10
2015,05,30,02,00,16.10
2015,05,30,02,01,16.10
2015,05,30,02,02,16.10
2015,05,30,02,03,16.10
2015,05,30,02,04,16.00
2015,05,30,02,05,16.00
2015,05,30,02,06,16.00
2015,05,30,02,07,15.90
2015,05,30,02,08,15.90
2015,05,30,02,09,15.90
2015,05,30,02,10,15.90
2015,05,30,02,11,15.90
2015,05,30,02,12,15.80
2015,05,30,02,13,15.80
2015,05,30,02,14,15.70
2015,05,30,02,15,15.70
2015,05,30,02,16,15.70
2015,05,30,02,17,15.60
2015,05,30,02,18,15.60
2015,05,30,02,19,15.60
2015,05,30,02,20,15.60
2015,05,30,02,21,15.50
2015,05,30,02,22,15.50
2015,05,30,02,23,15.40
2015,05,30,02,24,15.40
2015,05,30,02,25,15.40
2015,05,30,02,26,15.30
2015,05,30,02,27,15.30
2015,05,30,02,28,15.30
2015,05,30,02,29,15.20
2015,05,30,02,30,15.20
2015,05,30,02,31,15.10
2015,05,30,02,32,15.10
2015,05,30,02,33,15.00
2015,05,30,02,34,15.00
2015,05,30,02,35,14.90
2015,05,30,02,36,14.90
2015,05,30,02,37,14.80
2015,05,30,02,38,14.80
2015,05,30,02,39,14.80
2015,05,30,02,40,14.70
2015,05,30,02,41,14.70
2015,05,30,02,42,14.70
2015,05,30,02,43,14.60
2015,05,30,02,44,14.60
2015,05,30,02,45,14.50
2015,05,30,02,46,14.50
2015,05,30,02,47,14.50
2015,05,30,02,48,14.40
2015,05,30,02,49,14.40
2015,05,30,02,50,14.40
2015,05,30,02,51,14.40
2015,05,30,02,52,14.40
2015,05,30,02,53,14.30
2015,05,30,02,54,14.30
2015,05,30,02,55,14.30
2015,05,30,02,56,14.30
2015,05,30,02,57,14.20
2015,05,30,02,58,14.20
2015,05,30,02,59,14.20
2015,05,30,03,00,14.20
2015,05,30,03,01,14.10
2015,05,30,03,02,14.10
2015,05,30,03,03,14.10
2015,05,30,03,04,14.10
2015,05,30,03,05,14.10
2015,05,30,03,06,14.00
2015,05,30,03,07,14.00
2015,05,30,03,08,14.00
2015,05,30,03,09,13.90
2015,05,30,03,10,13.90
2015,05,30,03,11,13.90
2015,05,30,03,12,13.90
2015,05,30,03,13,13.90
2015,05,30,03,14,13.80
2015,05,30,03,15,13.80
2015,05,30,03,16,13.80
2015,05,30,03,17,13.80
2015,05,30,03,18,13.80
2015,05,30,03,19,13.80
2015,05,30,03,20,13.70
2015,05,30,03,21,13.70
2015,05,30,03,22,13.70
2015,05,30,03,23,13.70
2015,05,30,03,24,13.70
2015,05,30,03,25,13.70
2015,05,30,03,26,13.70
2015,05,30,03,27,13.70
2015,05,30,03,28,13.70
2015,05,30,03,29,13.70
2015,05,30,03,30,13.60
2015,05,30,03,31,13.70
2015,05,30,03,32,13.60
2015,05,30,03,33,13.60
2015,05,30,03,34,13.60
2015,05,30,03,35,13.60
2015,05,30,03,36,13.60
2015,05,30,03,37,13.60
2015,05,30,03,38,13.60
2015,05,30,03,39,13.60
2015,05,30,03,40,13.60
2015,05,30,03,41,13.70
2015,05,30,03,42,13.70
2015,05,30,03,43,13.70
2015,05,30,03,44,13.70
2015,05,30,03,45,13.70
2015,05,30,03,46,13.70
2015,05,30,03,47,13.70
2015,05,30,03,48,13.70
2015,05,30,03,49,13.70
2015,05,30,03,50,13.70
2015,05,30,03,51,13.70
2015,05,30,03,52,13.70
2015,05,30,03,53,13.70
2015,05,30,03,54,13.70
2015,05,30,03,55,13.70
2015,05,30,03,56,13.70
2015,05,30,03,57,13.70
2015,05,30,03,58,13.70
2015,05,30,03,59,13.70
2015,05,30,04,00,13.70
2015,05,30,04,01,13.70
2015,05,30,04,02,13.70
2015,05,30,04,03,13.70
2015,05,30,04,04,13.70
2015,05,30,04,05,13.70
2015,05,30,04,06,13.60
2015,05,30,04,07,13.60
2015,05,30,04,08,13.60
2015,05,30,04,09,13.60
2015,05,30,04,10,13.60
2015,05,30,04,11,13.60
2015,05,30,04,12,13.60
2015,05,30,04,13,13.60
2015,05,30,04,14,13.60
2015,05,30,04,15,13.60
2015,05,30,04,16,13.60
2015,05,30,04,17,13.60
2015,05,30,04,18,13.60
2015,05,30,04,19,13.60
2015,05,30,04,20,13.60
2015,05,30,04,21,13.60
2015,05,30,04,22,13.60
2015,05,30,04,23,13.60
2015,05,30,04,24,13.60
2015,05,30,04,25,13.60
2015,05,30,04,26,13.60
2015,05,30,04,27,13.60
2015,05,30,04,28,13.60
2015,05,30,04,29,13.60
2015,05,30,04,30,13.60
2015,05,30,04,31,13.70
2015,05,30,04,32,13.70
2015,05,30,04,33,13.60
2015,05,30,04,34,13.60
2015,05,30,04,35,13.60
2015,05,30,04,36,13.60
2015,05,30,04,37,13.60
2015,05,30,04,38,13.60
2015,05,30,04,39,13.60
2015,05,30,04,40,13.60
2015,05,30,04,41,13.50
2015,05,30,04,42,13.50
2015,05,30,04,43,13.50
2015,05,30,04,44,13.40
2015,05,30,04,45,13.40
2015,05,30,04,46,13.40
2015,05,30,04,47,13.40
2015,05,30,04,48,13.40
2015,05,30,04,49,13.40
2015,05,30,04,50,13.30
2015,05,30,04,51,13.30
2015,05,30,04,52,13.30
2015,05,30,04,53,13.30
2015,05,30,04,54,13.30
2015,05,30,04,55,13.30
2015,05,30,04,56,13.30
2015,05,30,04,57,13.20
2015,05,30,04,58,13.20
2015,05,30,04,59,13.20
2015,05,30,05,00,13.20
2015,05,30,05,01,13.20
2015,05,30,05,02,13.20
2015,05,30,05,03,13.20
2015,05,30,05,04,13.10
2015,05,30,05,05,13.10
2015,05,30,05,06,13.10
2015,05,30,05,07,13.10
2015,05,30,05,08,13.10
2015,05,30,05,09,13.00
2015,05,30,05,10,13.00
2015,05,30,05,11,13.00
2015,05,30,05,12,13.00
2015,05,30,05,13,13.00
2015,05,30,05,14,13.00
2015,05,30,05,15,13.00
2015,05,30,05,16,12.90
2015,05,30,05,17,12.90
2015,05,30,05,18,12.90
2015,05,30,05,19,12.90
2015,05,30,05,20,12.90
2015,05,30,05,21,12.90
2015,05,30,05,22,12.80
2015,05,30,05,23,12.80
2015,05,30,05,24,12.80
2015,05,30,05,25,12.80
2015,05,30,05,26,12.80
2015,05,30,05,27,12.70
2015,05,30,05,28,12.70
2015,05,30,05,29,12.70
2015,05,30,05,30,12.70
2015,05,30,05,31,12.70
2015,05,30,05,32,12.60
2015,05,30,05,33,12.60
2015,05,30,05,34,12.60
2015,05,30,05,35,12.60
2015,05,30,05,36,12.60
2015,05,30,05,37,12.60
2015,05,30,05,38,12.60
2015,05,30,05,39,12.60
2015,05,30,05,40,12.50
2015,05,30,05,41,12.50
2015,05,30,05,42,12.50
2015,05,30,05,43,12.40
2015,05,30,05,44,12.40
2015,05,30,05,45,12.40
2015,05,30,05,46,12.40
2015,05,30,05,47,12.40
2015,05,30,05,48,12.40
2015,05,30,05,49,12.30
2015,05,30,05,50,12.30
2015,05,30,05,51,12.30
2015,05,30,05,52,12.30
2015,05,30,05,53,12.30
2015,05,30,05,54,12.30
2015,05,30,05,55,12.30
2015,05,30,05,56,12.20
2015,05,30,05,57,12.20
2015,05,30,05,58,12.20
2015,05,30,05,59,12.20
2015,05,30,06,00,12.20
2015,05,30,06,01,12.20
2015,05,30,06,02,12.20
2015,05,30,06,03,12.10
2015,05,30,06,04,12.10
2015,05,30,06,05,12.00
2015,05,30,06,06,12.00
2015,05,30,06,07,12.00
2015,05,30,06,08,11.90
2015,05,30,06,09,11.90
2015,05,30,06,10,11.90
2015,05,30,06,11,11.80
2015,05,30,06,12,11.80
2015,05,30,06,13,11.80
2015,05,30,06,14,11.80
2015,05,30,06,15,11.70
2015,05,30,06,16,11.70
2015,05,30,06,17,11.70
2015,05,30,06,18,11.70
2015,05,30,06,19,11.60
2015,05,30,06,20,11.60
2015,05,30,06,21,11.60
2015,05,30,06,22,11.60
2015,05,30,06,23,11.60
2015,05,30,06,24,11.50
2015,05,30,06,25,11.50
2015,05,30,06,26,11.50
2015,05,30,06,27,11.50
2015,05,30,06,28,11.40
2015,05,30,06,29,11.40
2015,05,30,06,30,11.40
2015,05,30,06,31,11.40
2015,05,30,06,32,11.40
2015,05,30,06,33,11.40
2015,05,30,06,34,11.40
2015,05,30,06,35,11.40
2015,05,30,06,36,11.40
2015,05,30,06,37,11.40
2015,05,30,06,38,11.40
2015,05,30,06,39,11.40
2015,05,30,06,40,11.30
2015,05,30,06,41,11.30
2015,05,30,06,42,11.40
2015,05,30,06,43,11.40
2015,05,30,06,44,11.40
2015,05,30,06,45,11.40
2015,05,30,06,46,11.40
2015,05,30,06,47,11.40
2015,05,30,06,48,11.40
2015,05,30,06,49,11.40
2015,05,30,06,50,11.40
2015,05,30,06,51,11.40
2015,05,30,06,52,11.40
2015,05,30,06,53,11.40
2015,05,30,06,54,11.40
2015,05,30,06,55,11.40
2015,05,30,06,56,11.40
2015,05,30,06,57,11.40
2015,05,30,06,58,11.40
2015,05,30,06,59,11.30
2015,05,30,07,00,11.30
2015,05,30,07,01,11.30
2015,05,30,07,02,11.30
2015,05,30,07,03,11.30
2015,05,30,07,04,11.30
2015,05,30,07,05,11.40
2015,05,30,07,06,11.40
2015,05,30,07,07,11.40
2015,05,30,07,08,11.40
2015,05,30,07,09,11.40
2015,05,30,07,10,11.40
2015,05,30,07,11,11.40
2015,05,30,07,12,11.30
2015,05,30,07,13,11.30
2015,05,30,07,14,11.30
2015,05,30,07,15,11.30
2015,05,30,07,16,11.30
2015,05,30,07,17,11.30
2015,05,30,07,18,11.30
2015,05,30,07,19,11.30
2015,05,30,07,20,11.30
2015,05,30,07,21,11.30
2015,05,30,07,22,11.30
2015,05,30,07,23,11.30
2015,05,30,07,24,11.30
2015,05,30,07,25,11.30
2015,05,30,07,26,11.30
2015,05,30,07,27,11.40
2015,05,30,07,28,11.40
2015,05,30,07,29,11.40
2015,05,30,07,30,11.40
2015,05,30,07,31,11.40
2015,05,30,07,32,11.40
2015,05,30,07,33,11.40
2015,05,30,07,34,11.40
2015,05,30,07,35,11.40
2015,05,30,07,36,11.40
2015,05,30,07,37,11.40
2015,05,30,07,38,11.40
2015,05,30,07,39,11.40
2015,05,30,07,40,11.40
2015,05,30,07,41,11.40
2015,05,30,07,42,11.40
2015,05,30,07,43,11.40
2015,05,30,07,44,11.40
2015,05,30,07,45,11.40
2015,05,30,07,46,11.40
2015,05,30,07,47,11.40
2015,05,30,07,48,11.50
2015,05,30,07,49,11.50
2015,05,30,07,50,11.60
2015,05,30,07,51,11.60
2015,05,30,07,52,11.60
2015,05,30,07,53,11.70
2015,05,30,07,54,11.70
2015,05,30,07,55,11.70
2015,05,30,07,56,11.80
2015,05,30,07,57,11.80
2015,05,30,07,58,11.90
2015,05,30,07,59,12.00
2015,05,30,08,00,12.00
2015,05,30,08,01,12.10
2015,05,30,08,02,12.10
2015,05,30,08,03,12.20
2015,05,30,08,04,12.20
2015,05,30,08,05,12.20
2015,05,30,08,06,12.30
2015,05,30,08,07,12.40
2015,05,30,08,08,12.40
2015,05,30,08,09,12.50
2015,05,30,08,10,12.60
2015,05,30,08,11,12.60
2015,05,30,08,12,12.60
2015,05,30,08,13,12.70
2015,05,30,08,14,12.80
2015,05,30,08,15,12.90
2015,05,30,08,16,12.90
2015,05,30,08,17,13.00
2015,05,30,08,18,13.10
2015,05,30,08,19,13.20
2015,05,30,08,20,13.30
2015,05,30,08,21,13.30
2015,05,30,08,22,13.40
2015,05,30,08,23,13.50
2015,05,30,08,24,13.60
2015,05,30,08,25,13.60
2015,05,30,08,26,13.60
2015,05,30,08,27,13.70
2015,05,30,08,28,13.70
2015,05,30,08,29,13.70
2015,05,30,08,30,13.70
2015,05,30,08,31,13.70
2015,05,30,08,32,13.70
2015,05,30,08,33,13.80
2015,05,30,08,34,13.80
2015,05,30,08,35,13.90
2015,05,30,08,36,14.00
2015,05,30,08,37,14.10
2015,05,30,08,38,14.10
2015,05,30,08,39,14.20
2015,05,30,08,40,14.30
2015,05,30,08,41,14.30
2015,05,30,08,42,14.30
2015,05,30,08,43,14.40
2015,05,30,08,44,14.40
2015,05,30,08,45,14.40
2015,05,30,08,46,14.40
2015,05,30,08,47,14.40
2015,05,30,08,48,14.40
2015,05,30,08,49,14.40
2015,05,30,08,50,14.40
2015,05,30,08,51,14.40
2015,05,30,08,52,14.40
2015,05,30,08,53,14.30
2015,05,30,08,54,14.30
2015,05,30,08,55,14.30
2015,05,30,08,56,14.30
2015,05,30,08,57,14.30
2015,05,30,08,58,14.30
2015,05,30,08,59,14.30
2015,05,30,09,00,14.30
2015,05,30,09,01,14.40
2015,05,30,09,02,14.40
2015,05,30,09,03,14.40
2015,05,30,09,04,14.40
2015,05,30,09,05,14.40
2015,05,30,09,06,14.50
2015,05,30,09,07,14.50
2015,05,30,09,08,14.50
2015,05,30,09,09,14.50
2015,05,30,09,10,14.50
2015,05,30,09,11,14.50
2015,05,30,09,12,14.50
2015,05,30,09,13,14.60
2015,05,30,09,14,14.60
2015,05,30,09,15,14.60
2015,05,30,09,16,14.70
2015,05,30,09,17,14.70
2015,05,30,09,18,14.80
2015,05,30,09,19,14.80
2015,05,30,09,20,14.80
2015,05,30,09,21,14.90
2015,05,30,09,22,14.90
2015,05,30,09,23,15.00
2015,05,30,09,24,15.00
2015,05,30,09,25,15.10
2015,05,30,09,26,15.10
2015,05,30,09,27,15.20
2015,05,30,09,28,15.20
2015,05,30,09,29,15.20
2015,05,30,09,30,15.20
2015,05,30,09,31,15.20
2015,05,30,09,32,15.20
2015,05,30,09,33,15.30
2015,05,30,09,34,15.30
2015,05,30,09,35,15.40
2015,05,30,09,36,15.50
2015,05,30,09,37,15.60
2015,05,30,09,38,15.70
2015,05,30,09,39,15.70
2015,05,30,09,40,15.80
2015,05,30,09,41,15.80
2015,05,30,09,42,15.80
2015,05,30,09,43,15.80
2015,05,30,09,44,15.80
2015,05,30,09,45,15.80
2015,05,30,09,46,15.90
2015,05,30,09,47,15.90
2015,05,30,09,48,15.90
2015,05,30,09,49,15.80
2015,05,30,09,50,15.80
2015,05,30,09,51,15.90
2015,05,30,09,52,15.90
2015,05,30,09,53,16.00
2015,05,30,09,54,16.10
2015,05,30,09,55,16.10
2015,05,30,09,56,16.20
2015,05,30,09,57,16.20
2015,05,30,09,58,16.20
2015,05,30,09,59,16.20
2015,05,30,10,00,16.10
2015,05,30,10,01,16.10
2015,05,30,10,02,16.10
2015,05,30,10,03,16.10
2015,05,30,10,04,16.10
2015,05,30,10,05,16.20
2015,05,30,10,06,16.20
2015,05,30,10,07,16.20
2015,05,30,10,08,16.30
2015,05,30,10,09,16.40
2015,05,30,10,10,16.40
2015,05,30,10,11,16.50
2015,05,30,10,12,16.60
2015,05,30,10,13,16.70
2015,05,30,10,14,16.70
2015,05,30,10,15,16.70
2015,05,30,10,16,16.80
2015,05,30,10,17,16.80
2015,05,30,10,18,16.80
2015,05,30,10,19,16.80
2015,05,30,10,20,16.80
2015,05,30,10,21,16.80
2015,05,30,10,22,16.90
2015,05,30,10,23,16.90
2015,05,30,10,24,17.00
2015,05,30,10,25,17.10
2015,05,30,10,26,17.10
2015,05,30,10,27,17.10
2015,05,30,10,28,17.20
2015,05,30,10,29,17.20
2015,05,30,10,30,17.20
2015,05,30,10,31,17.20
2015,05,30,10,32,17.30
2015,05,30,10,33,17.30
2015,05,30,10,34,17.30
2015,05,30,10,35,17.30
2015,05,30,10,36,17.30
2015,05,30,10,37,17.30
2015,05,30,10,38,17.30
2015,05,30,10,39,17.30
2015,05,30,10,40,17.20
2015,05,30,10,41,17.30
2015,05,30,10,42,17.30
2015,05,30,10,43,17.30
2015,05,30,10,44,17.30
2015,05,30,10,45,17.30
2015,05,30,10,46,17.40
2015,05,30,10,47,17.40
2015,05,30,10,48,17.50
2015,05,30,10,49,17.50
2015,05,30,10,50,17.60
2015,05,30,10,51,17.60
2015,05,30,10,52,17.70
2015,05,30,10,53,17.70
2015,05,30,10,54,17.70
2015,05,30,10,55,17.70
2015,05,30,10,56,17.70
2015,05,30,10,57,17.60
2015,05,30,10,58,17.60
2015,05,30,10,59,17.60
2015,05,30,11,00,17.60
2015,05,30,11,01,17.60
2015,05,30,11,02,17.50
2015,05,30,11,03,17.50
2015,05,30,11,04,17.50
2015,05,30,11,05,17.50
2015,05,30,11,06,17.40
2015,05,30,11,07,17.50
2015,05,30,11,08,17.50
2015,05,30,11,09,17.60
2015,05,30,11,10,17.60
2015,05,30,11,11,17.70
2015,05,30,11,12,17.70
2015,05,30,11,13,17.80
2015,05,30,11,14,17.80
2015,05,30,11,15,17.80
2015,05,30,11,16,17.80
2015,05,30,11,17,17.80
2015,05,30,11,18,17.90
2015,05,30,11,19,17.90
2015,05,30,11,20,17.80
2015,05,30,11,21,17.80
2015,05,30,11,22,17.80
2015,05,30,11,23,17.70
2015,05,30,11,24,17.70
2015,05,30,11,25,17.60
2015,05,30,11,26,17.50
2015,05,30,11,27,17.40
2015,05,30,11,28,17.40
2015,05,30,11,29,17.40
2015,05,30,11,30,17.40
2015,05,30,11,31,17.40
2015,05,30,11,32,17.40
2015,05,30,11,33,17.50
2015,05,30,11,34,17.50
2015,05,30,11,35,17.60
2015,05,30,11,36,17.60
2015,05,30,11,37,17.70
2015,05,30,11,38,17.80
2015,05,30,11,39,17.90
2015,05,30,11,40,18.00
2015,05,30,11,41,18.20
2015,05,30,11,42,18.20
2015,05,30,11,43,18.20
2015,05,30,11,44,18.20
2015,05,30,11,45,18.20
2015,05,30,11,46,18.30
2015,05,30,11,47,18.30
2015,05,30,11,48,18.40
2015,05,30,11,49,18.30
2015,05,30,11,50,18.30
2015,05,30,11,51,18.40
2015,05,30,11,52,18.40
2015,05,30,11,53,18.50
2015,05,30,11,54,18.50
2015,05,30,11,55,18.50
2015,05,30,11,56,18.50
2015,05,30,11,57,18.60
2015,05,30,11,58,18.60
2015,05,30,11,59,18.70
2015,05,30,12,00,18.80
2015,05,30,12,01,18.80
2015,05,30,12,02,18.80
2015,05,30,12,03,18.80
2015,05,30,12,04,18.70
2015,05,30,12,05,18.70
2015,05,30,12,06,18.70
2015,05,30,12,07,18.70
2015,05,30,12,08,18.70
2015,05,30,12,09,18.70
2015,05,30,12,10,18.70
2015,05,30,12,11,18.80
2015,05,30,12,12,18.80
2015,05,30,12,13,18.80
2015,05,30,12,14,18.80
2015,05,30,12,15,18.80
2015,05,30,12,16,18.80
2015,05,30,12,17,18.80
2015,05,30,12,18,18.80
2015,05,30,12,19,18.70
2015,05,30,12,20,18.70
2015,05,30,12,21,18.70
2015,05,30,12,22,18.60
2015,05,30,12,23,18.70
2015,05,30,12,24,18.70
2015,05,30,12,25,18.70
2015,05,30,12,26,18.80
2015,05,30,12,27,18.80
2015,05,30,12,28,18.80
2015,05,30,12,29,18.80
2015,05,30,12,30,18.70
2015,05,30,12,31,18.60
2015,05,30,12,32,18.50
2015,05,30,12,33,18.50
2015,05,30,12,34,18.50
2015,05,30,12,35,18.60
2015,05,30,12,36,18.60
2015,05,30,12,37,18.70
2015,05,30,12,38,18.70
2015,05,30,12,39,18.70
2015,05,30,12,40,18.70
2015,05,30,12,41,18.70
2015,05,30,12,42,18.70
2015,05,30,12,43,18.70
2015,05,30,12,44,18.70
2015,05,30,12,45,18.80
2015,05,30,12,46,18.80
2015,05,30,12,47,18.70
2015,05,30,12,48,18.70
2015,05,30,12,49,18.80
2015,05,30,12,50,18.80
2015,05,30,12,51,18.80
2015,05,30,12,52,18.80
2015,05,30,12,53,18.90
2015,05,30,12,54,18.90
2015,05,30,12,55,18.90
2015,05,30,12,56,18.90
2015,05,30,12,57,18.90
2015,05,30,12,58,18.90
2015,05,30,12,59,18.90
2015,05,30,13,00,18.90
2015,05,30,13,01,19.00
2015,05,30,13,02,19.00
2015,05,30,13,03,19.00
2015,05,30,13,04,19.10
2015,05,30,13,05,19.20
2015,05,30,13,06,19.30
2015,05,30,13,07,19.50
2015,05,30,13,08,19.50
2015,05,30,13,09,19.50
2015,05,30,13,10,19.50
2015,05,30,13,11,19.50
2015,05,30,13,12,19.50
2015,05,30,13,13,19.60
2015,05,30,13,14,19.60
2015,05,30,13,15,19.60
2015,05,30,13,16,19.70
2015,05,30,13,17,19.70
2015,05,30,13,18,19.70
2015,05,30,13,19,19.70
2015,05,30,13,20,19.70
2015,05,30,13,21,19.70
2015,05,30,13,22,19.80
2015,05,30,13,23,19.90
2015,05,30,13,24,20.00
2015,05,30,13,25,20.10
2015,05,30,13,26,20.30
2015,05,30,13,27,20.40
2015,05,30,13,28,20.50
2015,05,30,13,29,20.50
2015,05,30,13,30,20.50
2015,05,30,13,31,20.50
2015,05,30,13,32,20.50
2015,05,30,13,33,20.50
2015,05,30,13,34,20.50
2015,05,30,13,35,20.40
2015,05,30,13,36,20.50
2015,05,30,13,37,20.50
2015,05,30,13,38,20.50
2015,05,30,13,39,20.50
2015,05,30,13,40,20.50
2015,05,30,13,41,20.60
2015,05,30,13,42,20.60
2015,05,30,13,43,20.60
2015,05,30,13,44,20.60
2015,05,30,13,45,20.70
2015,05,30,13,46,20.80
2015,05,30,13,47,20.80
2015,05,30,13,48,20.80
2015,05,30,13,49,20.90
2015,05,30,13,50,20.90
2015,05,30,13,51,20.90
2015,05,30,13,52,20.90
2015,05,30,13,53,21.00
2015,05,30,13,54,21.10
2015,05,30,13,55,21.10
2015,05,30,13,56,21.10
2015,05,30,13,57,21.10
2015,05,30,13,58,21.20
2015,05,30,13,59,21.20
2015,05,30,14,00,21.30
2015,05,30,14,01,21.40
2015,05,30,14,02,21.40
2015,05,30,14,03,21.50
2015,05,30,14,04,21.60
2015,05,30,14,05,21.70
2015,05,30,14,06,21.90
2015,05,30,14,07,22.00
2015,05,30,14,08,22.10
2015,05,30,14,09,22.20
2015,05,30,14,10,22.20
2015,05,30,14,11,22.40
2015,05,30,14,12,22.40
2015,05,30,14,13,22.50
2015,05,30,14,14,22.60
2015,05,30,14,15,22.60
2015,05,30,14,16,22.70
2015,05,30,14,17,22.70
2015,05,30,14,18,22.60
2015,05,30,14,19,22.50
2015,05,30,14,20,22.40
2015,05,30,14,21,22.40
2015,05,30,14,22,22.40
2015,05,30,14,23,22.40
2015,05,30,14,24,22.50
2015,05,30,14,25,22.50
2015,05,30,14,26,22.50
2015,05,30,14,27,22.50
2015,05,30,14,28,22.50
2015,05,30,14,29,22.50
2015,05,30,14,30,22.60
2015,05,30,14,31,22.70
2015,05,30,14,32,22.70
2015,05,30,14,33,22.70
2015,05,30,14,34,22.70
2015,05,30,14,35,22.60
2015,05,30,14,36,22.60
2015,05,30,14,37,22.50
2015,05,30,14,38,22.50
2015,05,30,14,39,22.50
2015,05,30,14,40,22.60
2015,05,30,14,41,22.70
2015,05,30,14,42,22.70
2015,05,30,14,43,22.70
2015,05,30,14,44,22.80
2015,05,30,14,45,22.80
2015,05,30,14,46,23.00
2015,05,30,14,47,23.00
2015,05,30,14,48,23.10
2015,05,30,14,49,23.10
2015,05,30,14,50,23.20
2015,05,30,14,51,23.30
2015,05,30,14,52,23.40
2015,05,30,14,53,23.40
2015,05,30,14,54,23.30
2015,05,30,14,55,23.20
2015,05,30,14,56,23.20
2015,05,30,14,57,23.20
2015,05,30,14,58,23.20
2015,05,30,14,59,23.10
2015,05,30,15,00,23.00
2015,05,30,15,01,23.00
2015,05,30,15,02,23.10
2015,05,30,15,03,23.20
2015,05,30,15,04,23.20
2015,05,30,15,05,23.20
2015,05,30,15,06,23.30
2015,05,30,15,07,23.30
2015,05,30,15,08,23.30
2015,05,30,15,09,23.40
2015,05,30,15,10,23.40
2015,05,30,15,11,23.40
2015,05,30,15,12,23.30
2015,05,30,15,13,23.30
2015,05,30,15,14,23.30
2015,05,30,15,15,23.40
2015,05,30,15,16,23.30
2015,05,30,15,17,23.40
2015,05,30,15,18,23.40
2015,05,30,15,19,23.40
2015,05,30,15,20,23.50
2015,05,30,15,21,23.50
2015,05,30,15,22,23.50
2015,05,30,15,23,23.50
2015,05,30,15,24,23.40
2015,05,30,15,25,23.40
2015,05,30,15,26,23.30
2015,05,30,15,27,23.30
2015,05,30,15,28,23.40
2015,05,30,15,29,23.40
2015,05,30,15,30,23.40
2015,05,30,15,31,23.40
2015,05,30,15,32,23.50
2015,05,30,15,33,23.50
2015,05,30,15,34,23.50
2015,05,30,15,35,23.50
2015,05,30,15,36,23.50
2015,05,30,15,37,23.60
2015,05,30,15,38,23.70
2015,05,30,15,39,23.70
2015,05,30,15,40,23.80
2015,05,30,15,41,23.80
2015,05,30,15,42,23.80
2015,05,30,15,43,23.70
2015,05,30,15,44,23.70
2015,05,30,15,45,23.60
2015,05,30,15,46,23.60
2015,05,30,15,47,23.60
2015,05,30,15,48,23.60
2015,05,30,15,49,23.50
2015,05,30,15,50,23.40
2015,05,30,15,51,23.30
2015,05,30,15,52,23.30
2015,05,30,15,53,23.30
2015,05,30,15,54,23.30
2015,05,30,15,55,23.30
2015,05,30,15,56,23.30
2015,05,30,15,57,23.20
2015,05,30,15,58,23.10
2015,05,30,15,59,23.10
2015,05,30,16,00,23.00
2015,05,30,16,01,23.00
2015,05,30,16,02,23.10
2015,05,30,16,03,23.10
2015,05,30,16,04,23.20
2015,05,30,16,05,23.20
2015,05,30,16,06,23.30
2015,05,30,16,07,23.40
2015,05,30,16,08,23.50
2015,05,30,16,09,23.60
2015,05,30,16,10,23.60
2015,05,30,16,11,23.70
2015,05,30,16,12,23.70
2015,05,30,16,13,23.80
2015,05,30,16,14,23.90
2015,05,30,16,15,23.90
2015,05,30,16,16,24.00
2015,05,30,16,17,24.00
2015,05,30,16,18,24.10
2015,05,30,16,19,24.10
2015,05,30,16,20,24.10
2015,05,30,16,21,24.20
2015,05,30,16,22,24.30
2015,05,30,16,23,24.30
2015,05,30,16,24,24.40
2015,05,30,16,25,24.50
2015,05,30,16,26,24.60
2015,05,30,16,27,24.70
2015,05,30,16,28,24.70
2015,05,30,16,29,24.60
2015,05,30,16,30,24.60
2015,05,30,16,31,24.60
2015,05,30,16,32,24.70
2015,05,30,16,33,24.70
2015,05,30,16,34,24.90
2015,05,30,16,35,25.00
2015,05,30,16,36,25.10
2015,05,30,16,37,25.10
2015,05,30,16,38,25.20
2015,05,30,16,39,25.20
2015,05,30,16,40,25.10
2015,05,30,16,41,25.00
2015,05,30,16,42,25.00
2015,05,30,16,43,25.00
2015,05,30,16,44,25.00
2015,05,30,16,45,25.00
2015,05,30,16,46,25.00
2015,05,30,16,47,24.90
2015,05,30,16,48,24.90
2015,05,30,16,49,24.90
2015,05,30,16,50,24.80
2015,05,30,16,51,24.70
2015,05,30,16,52,24.70
2015,05,30,16,53,24.70
2015,05,30,16,54,24.70
2015,05,30,16,55,24.70
2015,05,30,16,56,24.70
2015,05,30,16,57,24.70
2015,05,30,16,58,24.70
2015,05,30,16,59,24.80
2015,05,30,17,00,24.80
2015,05,30,17,01,24.80
2015,05,30,17,02,24.60
2015,05,30,17,03,24.50
2015,05,30,17,04,24.30
2015,05,30,17,05,24.20
2015,05,30,17,06,24.10
2015,05,30,17,07,24.00
2015,05,30,17,08,24.00
2015,05,30,17,09,23.90
2015,05,30,17,10,23.90
2015,05,30,17,11,23.80
2015,05,30,17,12,23.80
2015,05,30,17,13,23.70
2015,05,30,17,14,23.60
2015,05,30,17,15,23.50
2015,05,30,17,16,23.30
2015,05,30,17,17,23.20
2015,05,30,17,18,23.20
2015,05,30,17,19,23.20